Location: Bennemühlen
(52.5740°N, 9.7135°E)
Time: 05:21:54
(UTC+00:00)

A-11 Canister half - Pass Details

Date: 20 February 2026
Orbit: 1512 x 1687 km, 47.2° (Epoch: 5 March)

Event Time Altitude Azimuth Distance (km) Brightness Sun altitude
Rises 17:40:18 0° 183° (S) 4,927 11.8 -9.3°
Reaches altitude 10° 17:44:53 10° 165° (SSE) 3,945 11.0 -10.0°
Maximum altitude 17:50:52 18° 128° (SE) 3,358 10.4 -10.9°
Enters shadow 17:55:22 13° 99° (E) 3,692 10.4 -11.6°
Drops below altitude 10° 17:56:49 10° 91° (E) 3,925 - -11.8°
Sets 18:01:19 0° 74° (ENE) 4,893 - -12.5°
